Weather in Stary Akulshet

Russia / Irkutsk Oblast     56°00′49″N   98°03′57″E
temp.,
°C
wind,
m/s
gust,
m/s
humid.,
%
clouds,
%
prec.,
mm/h
press.,
hPa
HPBL,
m
7 may, fri
fri723:00+2ene229133 0.0 101525
02:00+2ese2489100 0.0 101593
05:00+3ese3985100 0.0 1014355
08:00+4ese51281100 0.0 1013533
11:00+7ese6954100 0.0 1012784
14:00+10ese7942100 0.0 1010920
17:00+12ese5944100 0.0 1008977
20:00+9se51158100 0.1 1007633
8 may, sat
sat823:00+6sse41292100 4.2 1006489
02:00+8w41392100 7.3 1008784
05:00+5w39951 0.0 1011266
08:00+8w4108291 0.1 1012583
11:00+11w696234 0.6 10121451
14:00+12w6105394 1.2 10112019
17:00+11wnw595299 0.2 10121763
20:00+10w4857100 0.2 1013528
9 may, sun
sun923:00+7wsw1173100 0.0 101325
02:00+5s248487 0.1 101076
05:00+6nne1196100 5.3 1008106
08:00+6w5108599 5.5 10101048
11:00+5wnw488588 0.3 1010767
14:00+8wnw696594 0.9 10111413
17:00+7wnw686899 0.6 10121364
20:00+6wnw487374 0.9 10131065
10 may, mon
mon1023:00+3wnw4989100 0.1 1015740
02:00+2wnw51197100 0.3 1015596
05:00+4wnw51097100 0.2 1015557
08:00+5nw4889100 0.2 1017576
11:00+9nnw466499 0.1 10181123
14:00+11nnw455195 1.0 10181633
17:00+12n344874 0.7 10181697
20:00+9n236717 1.1 101990
11 may, tue
tue1123:00+5nne128619 0.1 102020
02:00+3ne11925 0.1 101910
05:00+2ene11947 0.0 101910
08:00+6e248054 0.0 1018280
11:00+8ene3564100 0.0 1017702
14:00+11ne234685 0.0 10151771
17:00+11nne334696 0.0 10141574
20:00+10n245485 0.0 1014124